Year,Month,Day,Hour,Minute,Value (Times are PST for temperature in C)
2018,08,21,00,00,19.60
2018,08,21,00,01,19.60
2018,08,21,00,02,19.60
2018,08,21,00,03,19.60
2018,08,21,00,04,19.70
2018,08,21,00,05,19.70
2018,08,21,00,06,19.70
2018,08,21,00,07,19.70
2018,08,21,00,08,19.70
2018,08,21,00,09,19.70
2018,08,21,00,10,19.70
2018,08,21,00,11,19.80
2018,08,21,00,12,19.80
2018,08,21,00,13,19.80
2018,08,21,00,14,19.80
2018,08,21,00,15,19.80
2018,08,21,00,16,19.80
2018,08,21,00,17,19.80
2018,08,21,00,18,19.80
2018,08,21,00,19,19.80
2018,08,21,00,20,19.70
2018,08,21,00,21,19.70
2018,08,21,00,22,19.70
2018,08,21,00,23,19.70
2018,08,21,00,24,19.70
2018,08,21,00,25,19.70
2018,08,21,00,26,19.70
2018,08,21,00,27,19.60
2018,08,21,00,28,19.60
2018,08,21,00,29,19.60
2018,08,21,00,30,19.60
2018,08,21,00,31,19.60
2018,08,21,00,32,19.60
2018,08,21,00,33,19.50
2018,08,21,00,34,19.50
2018,08,21,00,35,19.50
2018,08,21,00,36,19.40
2018,08,21,00,37,19.40
2018,08,21,00,38,19.40
2018,08,21,00,39,19.40
2018,08,21,00,40,19.40
2018,08,21,00,41,19.40
2018,08,21,00,42,19.40
2018,08,21,00,43,19.40
2018,08,21,00,44,19.30
2018,08,21,00,45,19.30
2018,08,21,00,46,19.30
2018,08,21,00,47,19.30
2018,08,21,00,48,19.30
2018,08,21,00,49,19.30
2018,08,21,00,50,19.30
2018,08,21,00,51,19.30
2018,08,21,00,52,19.30
2018,08,21,00,53,19.30
2018,08,21,00,54,19.30
2018,08,21,00,55,19.30
2018,08,21,00,56,19.30
2018,08,21,00,57,19.30
2018,08,21,00,58,19.30
2018,08,21,00,59,19.30
2018,08,21,01,00,19.30
2018,08,21,01,01,19.30
2018,08,21,01,02,19.30
2018,08,21,01,03,19.30
2018,08,21,01,04,19.30
2018,08,21,01,05,19.30
2018,08,21,01,06,19.30
2018,08,21,01,07,19.30
2018,08,21,01,08,19.30
2018,08,21,01,09,19.30
2018,08,21,01,10,19.30
2018,08,21,01,11,19.30
2018,08,21,01,12,19.30
2018,08,21,01,13,19.30
2018,08,21,01,14,19.30
2018,08,21,01,15,19.30
2018,08,21,01,16,19.30
2018,08,21,01,17,19.30
2018,08,21,01,18,19.30
2018,08,21,01,19,19.30
2018,08,21,01,20,19.30
2018,08,21,01,21,19.30
2018,08,21,01,22,19.30
2018,08,21,01,23,19.30
2018,08,21,01,24,19.30
2018,08,21,01,25,19.30
2018,08,21,01,26,19.30
2018,08,21,01,27,19.30
2018,08,21,01,28,19.30
2018,08,21,01,29,19.30
2018,08,21,01,30,19.30
2018,08,21,01,31,19.30
2018,08,21,01,32,19.30
2018,08,21,01,33,19.40
2018,08,21,01,34,19.40
2018,08,21,01,35,19.40
2018,08,21,01,36,19.40
2018,08,21,01,37,19.50
2018,08,21,01,38,19.50
2018,08,21,01,39,19.50
2018,08,21,01,40,19.60
2018,08,21,01,41,19.60
2018,08,21,01,42,19.60
2018,08,21,01,43,19.60
2018,08,21,01,44,19.60
2018,08,21,01,45,19.60
2018,08,21,01,46,19.60
2018,08,21,01,47,19.50
2018,08,21,01,48,19.50
2018,08,21,01,49,19.50
2018,08,21,01,50,19.40
2018,08,21,01,51,19.40
2018,08,21,01,52,19.30
2018,08,21,01,53,19.30
2018,08,21,01,54,19.30
2018,08,21,01,55,19.20
2018,08,21,01,56,19.20
2018,08,21,01,57,19.10
2018,08,21,01,58,19.10
2018,08,21,01,59,19.00
2018,08,21,02,00,19.00
2018,08,21,02,01,18.90
2018,08,21,02,02,18.90
2018,08,21,02,03,18.80
2018,08,21,02,04,18.80
2018,08,21,02,05,18.80
2018,08,21,02,06,18.80
2018,08,21,02,07,18.70
2018,08,21,02,08,18.70
2018,08,21,02,09,18.70
2018,08,21,02,10,18.60
2018,08,21,02,11,18.60
2018,08,21,02,12,18.60
2018,08,21,02,13,18.50
2018,08,21,02,14,18.50
2018,08,21,02,15,18.50
2018,08,21,02,16,18.40
2018,08,21,02,17,18.40
2018,08,21,02,18,18.40
2018,08,21,02,19,18.40
2018,08,21,02,20,18.30
2018,08,21,02,21,18.30
2018,08,21,02,22,18.30
2018,08,21,02,23,18.30
2018,08,21,02,24,18.30
2018,08,21,02,25,18.30
2018,08,21,02,26,18.30
2018,08,21,02,27,18.20
2018,08,21,02,28,18.20
2018,08,21,02,29,18.20
2018,08,21,02,30,18.20
2018,08,21,02,31,18.20
2018,08,21,02,32,18.20
2018,08,21,02,33,18.20
2018,08,21,02,34,18.20
2018,08,21,02,35,18.20
2018,08,21,02,36,18.20
2018,08,21,02,37,18.20
2018,08,21,02,38,18.20
2018,08,21,02,39,18.20
2018,08,21,02,40,18.20
2018,08,21,02,41,18.20
2018,08,21,02,42,18.20
2018,08,21,02,43,18.20
2018,08,21,02,44,18.20
2018,08,21,02,45,18.20
2018,08,21,02,46,18.10
2018,08,21,02,47,18.10
2018,08,21,02,48,18.10
2018,08,21,02,49,18.10
2018,08,21,02,50,18.10
2018,08,21,02,51,18.10
2018,08,21,02,52,18.00
2018,08,21,02,53,18.00
2018,08,21,02,54,18.00
2018,08,21,02,55,18.00
2018,08,21,02,56,17.90
2018,08,21,02,57,17.90
2018,08,21,02,58,17.90
2018,08,21,02,59,17.90
2018,08,21,03,00,17.80
2018,08,21,03,01,17.80
2018,08,21,03,02,17.80
2018,08,21,03,03,17.80
2018,08,21,03,04,17.70
2018,08,21,03,05,17.70
2018,08,21,03,06,17.70
2018,08,21,03,07,17.70
2018,08,21,03,08,17.60
2018,08,21,03,09,17.60
2018,08,21,03,10,17.60
2018,08,21,03,11,17.60
2018,08,21,03,12,17.60
2018,08,21,03,13,17.50
2018,08,21,03,14,17.50
2018,08,21,03,15,17.50
2018,08,21,03,16,17.40
2018,08,21,03,17,17.40
2018,08,21,03,18,17.40
2018,08,21,03,19,17.40
2018,08,21,03,20,17.40
2018,08,21,03,21,17.30
2018,08,21,03,22,17.30
2018,08,21,03,23,17.30
2018,08,21,03,24,17.30
2018,08,21,03,25,17.30
2018,08,21,03,26,17.30
2018,08,21,03,27,17.20
2018,08,21,03,28,17.20
2018,08,21,03,29,17.20
2018,08,21,03,30,17.20
2018,08,21,03,31,17.20
2018,08,21,03,32,17.20
2018,08,21,03,33,17.20
2018,08,21,03,34,17.20
2018,08,21,03,35,17.10
2018,08,21,03,36,17.10
2018,08,21,03,37,17.10
2018,08,21,03,38,17.10
2018,08,21,03,39,17.10
2018,08,21,03,40,17.10
2018,08,21,03,41,17.10
2018,08,21,03,42,17.10
2018,08,21,03,43,17.00
2018,08,21,03,44,17.00
2018,08,21,03,45,17.00
2018,08,21,03,46,17.00
2018,08,21,03,47,17.00
2018,08,21,03,48,17.00
2018,08,21,03,49,17.00
2018,08,21,03,50,17.00
2018,08,21,03,51,16.90
2018,08,21,03,52,16.90
2018,08,21,03,53,16.90
2018,08,21,03,54,16.90
2018,08,21,03,55,16.90
2018,08,21,03,56,16.90
2018,08,21,03,57,16.90
2018,08,21,03,58,16.90
2018,08,21,03,59,16.90
2018,08,21,04,00,16.90
2018,08,21,04,01,16.90
2018,08,21,04,02,16.90
2018,08,21,04,03,16.90
2018,08,21,04,04,16.90
2018,08,21,04,05,16.90
2018,08,21,04,06,16.90
2018,08,21,04,07,16.90
2018,08,21,04,08,16.90
2018,08,21,04,09,16.90
2018,08,21,04,10,16.90
2018,08,21,04,11,16.90
2018,08,21,04,12,16.90
2018,08,21,04,13,16.90
2018,08,21,04,14,16.90
2018,08,21,04,15,16.90
2018,08,21,04,16,16.90
2018,08,21,04,17,16.90
2018,08,21,04,18,16.90
2018,08,21,04,19,16.90
2018,08,21,04,20,16.90
2018,08,21,04,21,16.90
2018,08,21,04,22,16.90
2018,08,21,04,23,16.90
2018,08,21,04,24,16.90
2018,08,21,04,25,16.90
2018,08,21,04,26,16.90
2018,08,21,04,27,16.90
2018,08,21,04,28,16.90
2018,08,21,04,29,16.90
2018,08,21,04,30,16.90
2018,08,21,04,31,16.90
2018,08,21,04,32,16.90
2018,08,21,04,33,16.90
2018,08,21,04,34,17.00
2018,08,21,04,35,17.00
2018,08,21,04,36,17.00
2018,08,21,04,37,17.00
2018,08,21,04,38,17.00
2018,08,21,04,39,17.00
2018,08,21,04,40,17.00
2018,08,21,04,41,16.90
2018,08,21,04,42,16.90
2018,08,21,04,43,16.90
2018,08,21,04,44,16.90
2018,08,21,04,45,16.80
2018,08,21,04,46,16.80
2018,08,21,04,47,16.80
2018,08,21,04,48,16.70
2018,08,21,04,49,16.70
2018,08,21,04,50,16.70
2018,08,21,04,51,16.60
2018,08,21,04,52,16.60
2018,08,21,04,53,16.60
2018,08,21,04,54,16.50
2018,08,21,04,55,16.50
2018,08,21,04,56,16.50
2018,08,21,04,57,16.40
2018,08,21,04,58,16.40
2018,08,21,04,59,16.40
2018,08,21,05,00,16.30
2018,08,21,05,01,16.30
2018,08,21,05,02,16.30
2018,08,21,05,03,16.30
2018,08,21,05,04,16.30
2018,08,21,05,05,16.30
2018,08,21,05,06,16.30
2018,08,21,05,07,16.20
2018,08,21,05,08,16.20
2018,08,21,05,09,16.20
2018,08,21,05,10,16.20
2018,08,21,05,11,16.20
2018,08,21,05,12,16.20
2018,08,21,05,13,16.20
2018,08,21,05,14,16.20
2018,08,21,05,15,16.20
2018,08,21,05,16,16.10
2018,08,21,05,17,16.10
2018,08,21,05,18,16.10
2018,08,21,05,19,16.10
2018,08,21,05,20,16.10
2018,08,21,05,21,16.10
2018,08,21,05,22,16.00
2018,08,21,05,23,16.00
2018,08,21,05,24,16.00
2018,08,21,05,25,16.00
2018,08,21,05,26,16.00
2018,08,21,05,27,15.90
2018,08,21,05,28,15.90
2018,08,21,05,29,15.90
2018,08,21,05,30,15.90
2018,08,21,05,31,15.90
2018,08,21,05,32,15.90
2018,08,21,05,33,15.90
2018,08,21,05,34,15.90
2018,08,21,05,35,15.80
2018,08,21,05,36,15.80
2018,08,21,05,37,15.80
2018,08,21,05,38,15.80
2018,08,21,05,39,15.80
2018,08,21,05,40,15.80
2018,08,21,05,41,15.80
2018,08,21,05,42,15.80
2018,08,21,05,43,15.80
2018,08,21,05,44,15.80
2018,08,21,05,45,15.80
2018,08,21,05,46,15.80
2018,08,21,05,47,15.70
2018,08,21,05,48,15.70
2018,08,21,05,49,15.70
2018,08,21,05,50,15.70
2018,08,21,05,51,15.70
2018,08,21,05,52,15.70
2018,08,21,05,53,15.70
2018,08,21,05,54,15.70
2018,08,21,05,55,15.70
2018,08,21,05,56,15.70
2018,08,21,05,57,15.70
2018,08,21,05,58,15.60
2018,08,21,05,59,15.60
2018,08,21,06,00,15.60
2018,08,21,06,01,15.60
2018,08,21,06,02,15.60
2018,08,21,06,03,15.60
2018,08,21,06,04,15.60
2018,08,21,06,05,15.60
2018,08,21,06,06,15.60
2018,08,21,06,07,15.60
2018,08,21,06,08,15.60
2018,08,21,06,09,15.60
2018,08,21,06,10,15.60
2018,08,21,06,11,15.60
2018,08,21,06,12,15.60
2018,08,21,06,13,15.60
2018,08,21,06,14,15.60
2018,08,21,06,15,15.60
2018,08,21,06,16,15.60
2018,08,21,06,17,15.60
2018,08,21,06,18,15.60
2018,08,21,06,19,15.60
2018,08,21,06,20,15.60
2018,08,21,06,21,15.60
2018,08,21,06,22,15.60
2018,08,21,06,23,15.70
2018,08,21,06,24,15.70
2018,08,21,06,25,15.70
2018,08,21,06,26,15.70
2018,08,21,06,27,15.80
2018,08,21,06,28,15.80
2018,08,21,06,29,15.80
2018,08,21,06,30,15.80
2018,08,21,06,31,15.90
2018,08,21,06,32,15.90
2018,08,21,06,33,15.90
2018,08,21,06,34,16.00
2018,08,21,06,35,16.00
2018,08,21,06,36,16.10
2018,08,21,06,37,16.10
2018,08,21,06,38,16.10
2018,08,21,06,39,16.10
2018,08,21,06,40,16.10
2018,08,21,06,41,16.10
2018,08,21,06,42,16.10
2018,08,21,06,43,16.10
2018,08,21,06,44,16.10
2018,08,21,06,45,16.10
2018,08,21,06,46,16.10
2018,08,21,06,47,16.10
2018,08,21,06,48,16.10
2018,08,21,06,49,16.10
2018,08,21,06,50,16.10
2018,08,21,06,51,16.10
2018,08,21,06,52,16.00
2018,08,21,06,53,16.00
2018,08,21,06,54,16.00
2018,08,21,06,55,16.00
2018,08,21,06,56,16.00
2018,08,21,06,57,15.90
2018,08,21,06,58,15.90
2018,08,21,06,59,15.90
2018,08,21,07,00,15.90
2018,08,21,07,01,15.80
2018,08,21,07,02,15.80
2018,08,21,07,03,15.80
2018,08,21,07,04,15.80
2018,08,21,07,05,15.80
2018,08,21,07,06,15.80
2018,08,21,07,07,15.80
2018,08,21,07,08,15.80
2018,08,21,07,09,15.80
2018,08,21,07,10,15.80
2018,08,21,07,11,15.80
2018,08,21,07,12,15.80
2018,08,21,07,13,15.80
2018,08,21,07,14,15.80
2018,08,21,07,15,15.80
2018,08,21,07,16,15.80
2018,08,21,07,17,15.80
2018,08,21,07,18,15.80
2018,08,21,07,19,15.90
2018,08,21,07,20,15.90
2018,08,21,07,21,15.90
2018,08,21,07,22,15.90
2018,08,21,07,23,15.90
2018,08,21,07,24,15.90
2018,08,21,07,25,15.90
2018,08,21,07,26,15.90
2018,08,21,07,27,15.90
2018,08,21,07,28,15.90
2018,08,21,07,29,15.90
2018,08,21,07,30,15.90
2018,08,21,07,31,15.90
2018,08,21,07,32,15.90
2018,08,21,07,33,15.90
2018,08,21,07,34,16.00
2018,08,21,07,35,16.00
2018,08,21,07,36,16.10
2018,08,21,07,37,16.10
2018,08,21,07,38,16.10
2018,08,21,07,39,16.10
2018,08,21,07,40,16.20
2018,08,21,07,41,16.20
2018,08,21,07,42,16.20
2018,08,21,07,43,16.20
2018,08,21,07,44,16.30
2018,08,21,07,45,16.30
2018,08,21,07,46,16.30
2018,08,21,07,47,16.40
2018,08,21,07,48,16.40
2018,08,21,07,49,16.40
2018,08,21,07,50,16.50
2018,08,21,07,51,16.50
2018,08,21,07,52,16.60
2018,08,21,07,53,16.60
2018,08,21,07,54,16.60
2018,08,21,07,55,16.70
2018,08,21,07,56,16.70
2018,08,21,07,57,16.80
2018,08,21,07,58,16.80
2018,08,21,07,59,16.80
2018,08,21,08,00,16.80
2018,08,21,08,01,16.80
2018,08,21,08,02,16.90
2018,08,21,08,03,16.90
2018,08,21,08,04,16.90
2018,08,21,08,05,16.90
2018,08,21,08,06,17.00
2018,08,21,08,07,17.00
2018,08,21,08,08,17.00
2018,08,21,08,09,17.10
2018,08,21,08,10,17.10
2018,08,21,08,11,17.10
2018,08,21,08,12,17.20
2018,08,21,08,13,17.20
2018,08,21,08,14,17.30
2018,08,21,08,15,17.30
2018,08,21,08,16,17.40
2018,08,21,08,17,17.40
2018,08,21,08,18,17.50
2018,08,21,08,19,17.50
2018,08,21,08,20,17.60
2018,08,21,08,21,17.60
2018,08,21,08,22,17.70
2018,08,21,08,23,17.80
2018,08,21,08,24,17.80
2018,08,21,08,25,17.80
2018,08,21,08,26,17.90
2018,08,21,08,27,18.00
2018,08,21,08,28,18.00
2018,08,21,08,29,18.10
2018,08,21,08,30,18.10
2018,08,21,08,31,18.20
2018,08,21,08,32,18.20
2018,08,21,08,33,18.30
2018,08,21,08,34,18.40
2018,08,21,08,35,18.40
2018,08,21,08,36,18.50
2018,08,21,08,37,18.60
2018,08,21,08,38,18.60
2018,08,21,08,39,18.70
2018,08,21,08,40,18.80
2018,08,21,08,41,18.80
2018,08,21,08,42,18.90
2018,08,21,08,43,18.90
2018,08,21,08,44,19.00
2018,08,21,08,45,19.00
2018,08,21,08,46,19.10
2018,08,21,08,47,19.20
2018,08,21,08,48,19.20
2018,08,21,08,49,19.30
2018,08,21,08,50,19.40
2018,08,21,08,51,19.40
2018,08,21,08,52,19.50
2018,08,21,08,53,19.50
2018,08,21,08,54,19.60
2018,08,21,08,55,19.70
2018,08,21,08,56,19.70
2018,08,21,08,57,19.80
2018,08,21,08,58,19.80
2018,08,21,08,59,19.90
2018,08,21,09,00,20.00
2018,08,21,09,01,20.00
2018,08,21,09,02,20.10
2018,08,21,09,03,20.20
2018,08,21,09,04,20.20
2018,08,21,09,05,20.30
2018,08,21,09,06,20.40
2018,08,21,09,07,20.40
2018,08,21,09,08,20.50
2018,08,21,09,09,20.60
2018,08,21,09,10,20.70
2018,08,21,09,11,20.70
2018,08,21,09,12,20.80
2018,08,21,09,13,20.90
2018,08,21,09,14,21.00
2018,08,21,09,15,21.00
2018,08,21,09,16,21.10
2018,08,21,09,17,21.20
2018,08,21,09,18,21.30
2018,08,21,09,19,21.40
2018,08,21,09,20,21.50
2018,08,21,09,21,21.50
2018,08,21,09,22,21.60
2018,08,21,09,23,21.70
2018,08,21,09,24,21.70
2018,08,21,09,25,21.80
2018,08,21,09,26,21.80
2018,08,21,09,27,21.80
2018,08,21,09,28,21.90
2018,08,21,09,29,21.90
2018,08,21,09,30,22.00
2018,08,21,09,31,22.00
2018,08,21,09,32,22.10
2018,08,21,09,33,22.10
2018,08,21,09,34,22.20
2018,08,21,09,35,22.20
2018,08,21,09,36,22.30
2018,08,21,09,37,22.30
2018,08,21,09,38,22.40
2018,08,21,09,39,22.40
2018,08,21,09,40,22.50
2018,08,21,09,41,22.50
2018,08,21,09,42,22.60
2018,08,21,09,43,22.70
2018,08,21,09,44,22.70
2018,08,21,09,45,22.80
2018,08,21,09,46,22.80
2018,08,21,09,47,22.90
2018,08,21,09,48,22.90
2018,08,21,09,49,22.90
2018,08,21,09,50,22.90
2018,08,21,09,51,22.90
2018,08,21,09,52,22.80
2018,08,21,09,53,22.80
2018,08,21,09,54,22.80
2018,08,21,09,55,22.70
2018,08,21,09,56,22.70
2018,08,21,09,57,22.70
2018,08,21,09,58,22.70
2018,08,21,09,59,22.70
2018,08,21,10,00,22.60
2018,08,21,10,01,22.50
2018,08,21,10,02,22.40
2018,08,21,10,03,22.40
2018,08,21,10,04,22.30
2018,08,21,10,05,22.30
2018,08,21,10,06,22.30
2018,08,21,10,07,22.30
2018,08,21,10,08,22.30
2018,08,21,10,09,22.30
2018,08,21,10,10,22.30
2018,08,21,10,11,22.30
2018,08,21,10,12,22.30
2018,08,21,10,13,22.30
2018,08,21,10,14,22.40
2018,08,21,10,15,22.40
2018,08,21,10,16,22.40
2018,08,21,10,17,22.50
2018,08,21,10,18,22.50
2018,08,21,10,19,22.60
2018,08,21,10,20,22.60
2018,08,21,10,21,22.60
2018,08,21,10,22,22.60
2018,08,21,10,23,22.50
2018,08,21,10,24,22.50
2018,08,21,10,25,22.40
2018,08,21,10,26,22.40
2018,08,21,10,27,22.40
2018,08,21,10,28,22.50
2018,08,21,10,29,22.50
2018,08,21,10,30,22.60
2018,08,21,10,31,22.70
2018,08,21,10,32,22.70
2018,08,21,10,33,22.70
2018,08,21,10,34,22.80
2018,08,21,10,35,22.80
2018,08,21,10,36,22.80
2018,08,21,10,37,22.80
2018,08,21,10,38,22.80
2018,08,21,10,39,22.80
2018,08,21,10,40,22.80
2018,08,21,10,41,22.70
2018,08,21,10,42,22.60
2018,08,21,10,43,22.60
2018,08,21,10,44,22.50
2018,08,21,10,45,22.50
2018,08,21,10,46,22.40
2018,08,21,10,47,22.40
2018,08,21,10,48,22.40
2018,08,21,10,49,22.40
2018,08,21,10,50,22.50
2018,08,21,10,51,22.50
2018,08,21,10,52,22.50
2018,08,21,10,53,22.50
2018,08,21,10,54,22.50
2018,08,21,10,55,22.50
2018,08,21,10,56,22.50
2018,08,21,10,57,22.50
2018,08,21,10,58,22.50
2018,08,21,10,59,22.50
2018,08,21,11,00,22.60
2018,08,21,11,01,22.50
2018,08,21,11,02,22.50
2018,08,21,11,03,22.50
2018,08,21,11,04,22.50
2018,08,21,11,05,22.50
2018,08,21,11,06,22.50
2018,08,21,11,07,22.50
2018,08,21,11,08,22.50
2018,08,21,11,09,22.50
2018,08,21,11,10,22.50
2018,08,21,11,11,22.50
2018,08,21,11,12,22.50
2018,08,21,11,13,22.60
2018,08,21,11,14,22.60
2018,08,21,11,15,22.70
2018,08,21,11,16,22.70
2018,08,21,11,17,22.70
2018,08,21,11,18,22.70
2018,08,21,11,19,22.70
2018,08,21,11,20,22.70
2018,08,21,11,21,22.70
2018,08,21,11,22,22.70
2018,08,21,11,23,22.70
2018,08,21,11,24,22.70
2018,08,21,11,25,22.70
2018,08,21,11,26,22.80
2018,08,21,11,27,22.80
2018,08,21,11,28,22.80
2018,08,21,11,29,22.90
2018,08,21,11,30,22.90
2018,08,21,11,31,22.90
2018,08,21,11,32,23.00
2018,08,21,11,33,23.00
2018,08,21,11,34,23.00
2018,08,21,11,35,23.10
2018,08,21,11,36,23.10
2018,08,21,11,37,23.20
2018,08,21,11,38,23.20
2018,08,21,11,39,23.20
2018,08,21,11,40,23.20
2018,08,21,11,41,23.20
2018,08,21,11,42,23.20
2018,08,21,11,43,23.20
2018,08,21,11,44,23.10
2018,08,21,11,45,23.10
2018,08,21,11,46,23.10
2018,08,21,11,47,23.10
2018,08,21,11,48,23.20
2018,08,21,11,49,23.20
2018,08,21,11,50,23.30
2018,08,21,11,51,23.30
2018,08,21,11,52,23.30
2018,08,21,11,53,23.30
2018,08,21,11,54,23.30
2018,08,21,11,55,23.40
2018,08,21,11,56,23.50
2018,08,21,11,57,23.50
2018,08,21,11,58,23.60
2018,08,21,11,59,23.70
2018,08,21,12,00,23.80
2018,08,21,12,01,23.90
2018,08,21,12,02,24.00
2018,08,21,12,03,24.00
2018,08,21,12,04,24.10
2018,08,21,12,05,24.10
2018,08,21,12,06,24.10
2018,08,21,12,07,24.00
2018,08,21,12,08,24.00
2018,08,21,12,09,23.90
2018,08,21,12,10,23.80
2018,08,21,12,11,23.70
2018,08,21,12,12,23.70
2018,08,21,12,13,23.70
2018,08,21,12,14,23.80
2018,08,21,12,15,23.80
2018,08,21,12,16,23.90
2018,08,21,12,17,23.90
2018,08,21,12,18,24.00
2018,08,21,12,19,24.10
2018,08,21,12,20,24.20
2018,08,21,12,21,24.20
2018,08,21,12,22,24.30
2018,08,21,12,23,24.30
2018,08,21,12,24,24.30
2018,08,21,12,25,24.40
2018,08,21,12,26,24.40
2018,08,21,12,27,24.50
2018,08,21,12,28,24.50
2018,08,21,12,29,24.60
2018,08,21,12,30,24.70
2018,08,21,12,31,24.70
2018,08,21,12,32,24.70
2018,08,21,12,33,24.80
2018,08,21,12,34,24.80
2018,08,21,12,35,24.80
2018,08,21,12,36,24.90
2018,08,21,12,37,24.90
2018,08,21,12,38,24.90
2018,08,21,12,39,25.00
2018,08,21,12,40,25.10
2018,08,21,12,41,25.10
2018,08,21,12,42,25.10
2018,08,21,12,43,25.10
2018,08,21,12,44,25.10
2018,08,21,12,45,25.20
2018,08,21,12,46,25.20
2018,08,21,12,47,25.20
2018,08,21,12,48,25.20
2018,08,21,12,49,25.20
2018,08,21,12,50,25.20
2018,08,21,12,51,25.20
2018,08,21,12,52,25.20
2018,08,21,12,53,25.20
2018,08,21,12,54,25.20
2018,08,21,12,55,25.10
2018,08,21,12,56,25.10
2018,08,21,12,57,25.00
2018,08,21,12,58,25.00
2018,08,21,12,59,25.00
2018,08,21,13,00,24.90
2018,08,21,13,01,24.90
2018,08,21,13,02,24.90
2018,08,21,13,03,24.90
2018,08,21,13,04,24.90
2018,08,21,13,05,24.80
2018,08,21,13,06,24.80
2018,08,21,13,07,24.90
2018,08,21,13,08,24.90
2018,08,21,13,09,25.00
2018,08,21,13,10,25.00
2018,08,21,13,11,25.10
2018,08,21,13,12,25.10
2018,08,21,13,13,25.20
2018,08,21,13,14,25.20
2018,08,21,13,15,25.30
2018,08,21,13,16,25.30
2018,08,21,13,17,25.40
2018,08,21,13,18,25.40
2018,08,21,13,19,25.40
2018,08,21,13,20,25.40
2018,08,21,13,21,25.40
2018,08,21,13,22,25.50
2018,08,21,13,23,25.40
2018,08,21,13,24,25.50
2018,08,21,13,25,25.50
2018,08,21,13,26,25.50
2018,08,21,13,27,25.40
2018,08,21,13,28,25.40
2018,08,21,13,29,25.40
2018,08,21,13,30,25.40
2018,08,21,13,31,25.50
2018,08,21,13,32,25.50
2018,08,21,13,33,25.50
2018,08,21,13,34,25.40
2018,08,21,13,35,25.40
2018,08,21,13,36,25.40
2018,08,21,13,37,25.40
2018,08,21,13,38,25.50
2018,08,21,13,39,25.50
2018,08,21,13,40,25.50
2018,08,21,13,41,25.60
2018,08,21,13,42,25.50
2018,08,21,13,43,25.50
2018,08,21,13,44,25.60
2018,08,21,13,45,25.60
2018,08,21,13,46,25.70
2018,08,21,13,47,25.70
2018,08,21,13,48,25.80
2018,08,21,13,49,25.80
2018,08,21,13,50,25.80
2018,08,21,13,51,25.80
2018,08,21,13,52,25.80
2018,08,21,13,53,25.80
2018,08,21,13,54,25.80
2018,08,21,13,55,25.80
2018,08,21,13,56,25.80
2018,08,21,13,57,25.90
2018,08,21,13,58,25.90
2018,08,21,13,59,25.90
2018,08,21,14,00,25.90
2018,08,21,14,01,25.90
2018,08,21,14,02,25.90
2018,08,21,14,03,25.90
2018,08,21,14,04,25.90
2018,08,21,14,05,25.90
2018,08,21,14,06,25.90
2018,08,21,14,07,25.90
2018,08,21,14,08,25.90
2018,08,21,14,09,26.00
2018,08,21,14,10,26.10
2018,08,21,14,11,26.10
2018,08,21,14,12,26.20
2018,08,21,14,13,26.20
2018,08,21,14,14,26.20
2018,08,21,14,15,26.10
2018,08,21,14,16,26.10
2018,08,21,14,17,26.10
2018,08,21,14,18,26.10
2018,08,21,14,19,26.20
2018,08,21,14,20,26.20
2018,08,21,14,21,26.20
2018,08,21,14,22,26.20
2018,08,21,14,23,26.20
2018,08,21,14,24,26.30
2018,08,21,14,25,26.20
2018,08,21,14,26,26.20
2018,08,21,14,27,26.20
2018,08,21,14,28,26.20
2018,08,21,14,29,26.20
2018,08,21,14,30,26.10
2018,08,21,14,31,26.10
2018,08,21,14,32,26.10
2018,08,21,14,33,26.10
2018,08,21,14,34,26.10
2018,08,21,14,35,26.10
2018,08,21,14,36,26.10
2018,08,21,14,37,26.10
2018,08,21,14,38,26.10
2018,08,21,14,39,26.20
2018,08,21,14,40,26.20
2018,08,21,14,41,26.20
2018,08,21,14,42,26.20
2018,08,21,14,43,26.30
2018,08,21,14,44,26.30
2018,08,21,14,45,26.30
2018,08,21,14,46,26.30
2018,08,21,14,47,26.20
2018,08,21,14,48,26.20
2018,08,21,14,49,26.20
2018,08,21,14,50,26.20
2018,08,21,14,51,26.20
2018,08,21,14,52,26.20
2018,08,21,14,53,26.20
2018,08,21,14,54,26.20
2018,08,21,14,55,26.10
2018,08,21,14,56,26.10
2018,08,21,14,57,26.00
2018,08,21,14,58,26.00
2018,08,21,14,59,25.90
2018,08,21,15,00,25.90
2018,08,21,15,01,25.90
2018,08,21,15,02,26.00
2018,08,21,15,03,26.00
2018,08,21,15,04,26.10
2018,08,21,15,05,26.10
2018,08,21,15,06,26.20
2018,08,21,15,07,26.20
2018,08,21,15,08,26.20
2018,08,21,15,09,26.30
2018,08,21,15,10,26.30
2018,08,21,15,11,26.30
2018,08,21,15,12,26.30
2018,08,21,15,13,26.30
2018,08,21,15,14,26.40
2018,08,21,15,15,26.50
2018,08,21,15,16,26.50
2018,08,21,15,17,26.60
2018,08,21,15,18,26.60
2018,08,21,15,19,26.60
2018,08,21,15,20,26.70
2018,08,21,15,21,26.70
2018,08,21,15,22,26.80
2018,08,21,15,23,26.90
2018,08,21,15,24,27.00
2018,08,21,15,25,27.10
2018,08,21,15,26,27.10
2018,08,21,15,27,27.20
2018,08,21,15,28,27.30
2018,08,21,15,29,27.40
2018,08,21,15,30,27.40
2018,08,21,15,31,27.30
2018,08,21,15,32,27.30
2018,08,21,15,33,27.30
2018,08,21,15,34,27.40
2018,08,21,15,35,27.40
2018,08,21,15,36,27.40
2018,08,21,15,37,27.50
2018,08,21,15,38,27.60
2018,08,21,15,39,27.70
2018,08,21,15,40,27.80
2018,08,21,15,41,27.80
2018,08,21,15,42,27.90
2018,08,21,15,43,28.00
2018,08,21,15,44,28.10
2018,08,21,15,45,28.10
2018,08,21,15,46,28.20
2018,08,21,15,47,28.20
2018,08,21,15,48,28.30
2018,08,21,15,49,28.30
2018,08,21,15,50,28.30
2018,08,21,15,51,28.30
2018,08,21,15,52,28.30
2018,08,21,15,53,28.40
2018,08,21,15,54,28.40
2018,08,21,15,55,28.40
2018,08,21,15,56,28.50
2018,08,21,15,57,28.50
2018,08,21,15,58,28.60
2018,08,21,15,59,28.60
2018,08,21,16,00,28.60
2018,08,21,16,01,28.70
2018,08,21,16,02,28.70
2018,08,21,16,03,28.70
2018,08,21,16,04,28.70
2018,08,21,16,05,28.80
2018,08,21,16,06,28.80
2018,08,21,16,07,28.80
2018,08,21,16,08,28.80
2018,08,21,16,09,28.90
2018,08,21,16,10,28.90
2018,08,21,16,11,28.90
2018,08,21,16,12,28.90
2018,08,21,16,13,28.90
2018,08,21,16,14,28.90
2018,08,21,16,15,28.90
2018,08,21,16,16,28.90
2018,08,21,16,17,28.90
2018,08,21,16,18,29.00
2018,08,21,16,19,29.00
2018,08,21,16,20,29.00
2018,08,21,16,21,29.10
2018,08,21,16,22,29.10
2018,08,21,16,23,29.20
2018,08,21,16,24,29.20
2018,08,21,16,25,29.20
2018,08,21,16,26,29.20
2018,08,21,16,27,29.20
2018,08,21,16,28,29.20
2018,08,21,16,29,29.20
2018,08,21,16,30,29.10
2018,08,21,16,31,29.10
2018,08,21,16,32,29.00
2018,08,21,16,33,28.90
2018,08,21,16,34,28.90
2018,08,21,16,35,28.80
2018,08,21,16,36,28.70
2018,08,21,16,37,28.70
2018,08,21,16,38,28.60
2018,08,21,16,39,28.50
2018,08,21,16,40,28.40
2018,08,21,16,41,28.30
2018,08,21,16,42,28.20
2018,08,21,16,43,28.00
2018,08,21,16,44,28.00
2018,08,21,16,45,27.90
2018,08,21,16,46,27.80
2018,08,21,16,47,27.80
2018,08,21,16,48,27.70
2018,08,21,16,49,27.70
2018,08,21,16,50,27.70
2018,08,21,16,51,27.70
2018,08,21,16,52,27.70
2018,08,21,16,53,27.70
2018,08,21,16,54,27.80
2018,08,21,16,55,27.80
2018,08,21,16,56,27.80
2018,08,21,16,57,27.80
2018,08,21,16,58,27.80
2018,08,21,16,59,27.80
2018,08,21,17,00,27.80
2018,08,21,17,01,27.80
2018,08,21,17,02,27.90
2018,08,21,17,03,27.90
2018,08,21,17,04,27.80
2018,08,21,17,05,27.80
2018,08,21,17,06,27.80
2018,08,21,17,07,27.70
2018,08,21,17,08,27.60
2018,08,21,17,09,27.60
2018,08,21,17,10,27.60
2018,08,21,17,11,27.60
2018,08,21,17,12,27.50
2018,08,21,17,13,27.50
2018,08,21,17,14,27.40
2018,08,21,17,15,27.40
2018,08,21,17,16,27.40
2018,08,21,17,17,27.40
2018,08,21,17,18,27.30
2018,08,21,17,19,27.30